User: anonymous   Login
Location: Buch
(49.7331°N, 12.1098°E)
Time: 01:16:41
(UTC+00:00)
Language:

Meteor 1-10 Rocket - Orbit

View from above orbital plane
View from above orbital plane
View from above satellite
View from above satellite

Ground track
Ground track

The orbit data is extracted from the following two-line orbital elements,

1 05732U 71120B   21208.44364749 -.00000009  00000-0 -13039-4 0  9993
2 05732  81.2524 112.9171 0052328 140.9009 219.5960 14.06007844541732
Epoch (UTC): 27 July 2021 10:38:51
Eccentricity: 0.0052328
inclination: 81.2524°
perigee height: 835 km
apogee height: 911 km
right ascension of ascending node: 112.9171°
argument of perigee: 140.9009°
revolutions per day: 14.06007844
mean anomaly at epoch: 219.5960°
orbit number at epoch: 54173

The dashed part of the orbit path shows where the satellite is in the earth's shadow,  

DLR